Glasgow, United Kingdom

3:17 PM BST on September 20, 2017 (GMT +0100)
Glasgow

Weather History for EGPF - May, 2014

Change the Weather History Date:

Sunday, May 18, 2014

  Actual Average Record
Temperature  
Mean Temperature 54 °F -  
Max Temperature 57 °F 59 °F 69 °F (1998)
Min Temperature 51 °F 45 °F 35 °F (2005)
Degree Days  
Heating Degree Days 11    
Growing Degree Days 4 (Base 50)    
Moisture  
Dew Point 49 °F    
Average Humidity 82    
Maximum Humidity 94    
Minimum Humidity 72    
Precipitation  
Precipitation 0.00 in - - ()
Sea Level Pressure  
Sea Level Pressure 29.74 in    
Wind  
Wind Speed 7 mph ()    
Max Wind Speed 13 mph    
Max Gust Speed -    
Visibility 6.2 miles    
Events Rain    
Averages and records for this station are not official NWS values.
T = Trace of Precipitation, MM = Missing Value Source: Averaged Metar Reports

Daily Weather History Graph

Daily Weather History Graph

Search for Another Location

Airport or City:

Trip Planner

Search our weather history database for the weather conditions in past years. The results will help you decide how hot, cold, wet, or windy it might be!

Date:

Astronomy

May. 18, 2014 Rise Set
Actual Time 5:00 AM BST 9:28 PM BST
Civil Twilight 4:09 AM BST 10:20 PM BST
Nautical Twilight 2:48 AM BST 11:42 PM BST
Astronomical Twilight Sun does not set Sun does not set
Moon 12:10 AM BST (5/18) 8:40 AM BST (5/18)
Length of Visible Light 18h 10m
Length of Day
16h 28m
Waning Gibbous, 83% of the Moon is Illuminated
May 18
Waning Gibbous
May 21
Last Quarter
May 28
New
Jun 5
First Quarter
Jun 13
Full

Hourly Weather History & Observations

Time (BST) Temp. Dew Point Humidity Pressure Visibility Wind Dir Wind Speed Gust Speed Precip Events Conditions
12:20 AM 53.6 °F 50.0 °F 88% 29.86 in 6.2 mi South 5.8 mph - N/A Rain Light Rain
12:50 AM 53.6 °F 50.0 °F 88% 29.83 in 6.2 mi South 5.8 mph - N/A Rain Light Rain
1:20 AM 53.6 °F 50.0 °F 88% 29.83 in 6.2 mi South 8.1 mph - N/A Rain Light Rain
1:50 AM 53.6 °F 50.0 °F 88% 29.83 in 6.2 mi South 9.2 mph - N/A Rain Light Rain
2:20 AM 51.8 °F 50.0 °F 94% 29.80 in 6.2 mi South 9.2 mph - N/A Rain Light Rain
2:50 AM 53.6 °F 50.0 °F 88% 29.80 in 6.2 mi South 6.9 mph - N/A Rain Light Rain
3:20 AM 53.6 °F 50.0 °F 88% 29.77 in 6.2 mi Variable 2.3 mph - N/A   Overcast
3:50 AM 51.8 °F 50.0 °F 94% 29.77 in 6.2 mi ESE 4.6 mph - N/A   Overcast
4:20 AM 53.6 °F 48.2 °F 82% 29.77 in 6.2 mi South 5.8 mph - N/A   Overcast
4:50 AM 53.6 °F 48.2 °F 82% 29.74 in 6.2 mi SSE 9.2 mph - N/A   Overcast
5:20 AM 53.6 °F 46.4 °F 77% 29.74 in 6.2 mi South 12.7 mph - N/A   Overcast
5:50 AM 51.8 °F 44.6 °F 76% 29.74 in 6.2 mi South 10.4 mph - N/A   Mostly Cloudy
6:20 AM 51.8 °F 44.6 °F 76% 29.74 in 6.2 mi South 9.2 mph - N/A   Mostly Cloudy
6:50 AM 51.8 °F 44.6 °F 76% 29.74 in 6.2 mi South 9.2 mph - N/A   Mostly Cloudy
7:20 AM 53.6 °F 44.6 °F 72% 29.74 in 6.2 mi South 9.2 mph - N/A   Mostly Cloudy
7:50 AM 53.6 °F 46.4 °F 77% 29.74 in 6.2 mi SSW 8.1 mph - N/A   Mostly Cloudy
8:20 AM 53.6 °F 46.4 °F 77% 29.74 in 6.2 mi South 9.2 mph - N/A   Mostly Cloudy
8:50 AM 53.6 °F 46.4 °F 77% 29.74 in 6.2 mi South 9.2 mph - N/A   Mostly Cloudy
9:20 AM 55.4 °F 46.4 °F 72% 29.74 in 6.2 mi South 9.2 mph - N/A   Mostly Cloudy
9:50 AM 55.4 °F 46.4 °F 72% 29.74 in 6.2 mi SSW 10.4 mph - N/A   Mostly Cloudy
10:20 AM 55.4 °F 46.4 °F 72% 29.74 in 6.2 mi SSW 10.4 mph - N/A   Mostly Cloudy
10:50 AM 55.4 °F 48.2 °F 77% 29.74 in 6.2 mi SW 11.5 mph - N/A   Mostly Cloudy
11:20 AM 57.2 °F 48.2 °F 72% 29.74 in 6.2 mi SW 10.4 mph - N/A   Mostly Cloudy
11:50 AM 55.4 °F 48.2 °F 77% 29.71 in 6.2 mi WSW 9.2 mph - N/A   Mostly Cloudy
12:20 PM 55.4 °F 50.0 °F 82% 29.71 in 6.2 mi West 5.8 mph - N/A   Mostly Cloudy
12:50 PM 57.2 °F 48.2 °F 72% 29.71 in 6.2 mi SW 10.4 mph - N/A   Mostly Cloudy
1:20 PM 57.2 °F 50.0 °F 77% 29.74 in 6.2 mi SW 11.5 mph - N/A   Mostly Cloudy
1:50 PM 57.2 °F 50.0 °F 77% 29.71 in 6.2 mi WSW 9.2 mph - N/A   Mostly Cloudy
2:20 PM 57.2 °F 50.0 °F 77% 29.71 in 6.2 mi WSW 5.8 mph - N/A Rain Light Rain
2:50 PM 55.4 °F 50.0 °F 82% 29.71 in 6.2 mi West 6.9 mph - N/A   Mostly Cloudy
3:20 PM 55.4 °F 51.8 °F 88% 29.71 in 6.2 mi Variable 3.5 mph - N/A   Mostly Cloudy
3:50 PM 55.4 °F 50.0 °F 82% 29.71 in 6.2 mi WSW 4.6 mph - N/A   Mostly Cloudy
4:20 PM 55.4 °F 50.0 °F 82% 29.71 in 6.2 mi SW 9.2 mph - N/A Rain Light Rain
4:50 PM 55.4 °F 50.0 °F 82% 29.71 in 6.2 mi WSW 6.9 mph - N/A Rain Light Rain
5:20 PM 55.4 °F 50.0 °F 82% 29.71 in 6.2 mi SW 6.9 mph - N/A Rain Light Rain
5:50 PM 55.4 °F 50.0 °F 82% 29.71 in 6.2 mi SW 6.9 mph - N/A Rain Light Rain
6:20 PM 57.2 °F 48.2 °F 72% 29.71 in 6.2 mi SW 9.2 mph - N/A   Partly Cloudy
6:50 PM 57.2 °F 48.2 °F 72% 29.71 in - SW 10.4 mph - N/A   Clear
7:20 PM 55.4 °F 50.0 °F 82% 29.71 in 6.2 mi West 8.1 mph - N/A   Partly Cloudy
7:50 PM 55.4 °F 51.8 °F 88% 29.71 in 6.2 mi Variable 3.5 mph - N/A   Scattered Clouds
8:20 PM 53.6 °F 50.0 °F 88% 29.71 in 6.2 mi West 4.6 mph - N/A   Partly Cloudy
8:50 PM 53.6 °F 50.0 °F 88% 29.71 in 6.2 mi West 5.8 mph - N/A   Partly Cloudy
9:20 PM 53.6 °F 50.0 °F 88% 29.71 in 6.2 mi West 2.3 mph - N/A   Mostly Cloudy
9:50 PM 53.6 °F 50.0 °F 88% 29.71 in 6.2 mi Calm Calm - N/A   Mostly Cloudy
10:20 PM 51.8 °F 50.0 °F 94% 29.71 in 6.2 mi North 2.3 mph - N/A   Mostly Cloudy
10:50 PM 51.8 °F 50.0 °F 94% 29.71 in 6.2 mi NW 2.3 mph - N/A   Partly Cloudy
11:20 PM 51.8 °F 50.0 °F 94% 29.71 in 6.2 mi Variable 2.3 mph - N/A   Partly Cloudy
11:50 PM 51.8 °F 50.0 °F 94% 29.71 in 6.2 mi Calm Calm - N/A   Scattered Clouds